Погода в Старом Дрожжаном

Россия / Республика Татарстан     54°43′27″N   47°33′47″E
темп.,
°C
ветер,
м/с
пор.,
м/с
влажн.,
%
обл.,
%
осадки,
мм/ч
давл.,
гПа
погр.,
м
24 января, вс
вс2400:00+1юз612100100 0.6 1019361
03:00+1зюз41198100 0.7 1019362
06:00+1юз31099100 0.1 1019282
09:00+1ююз41099100 0.2 1020294
12:00+1ююз410100100 0.1 1021303
15:00+1ююз4999100 0.1 1022265
18:00+1ююз51198100 0.0 1023305
21:00+1ююз51199100 0.2 1024339
25 января, пн
пн2500:00+1ююз61295100 0.1 1024360
03:000ююз61194100 0.2 1025351
06:00−1ююз6119497 0.0 1025413
09:00−1ююз6109398 0.0 1026501
12:00−2ю6993100 0.0 1027470
15:00−2ю6993100 0.0 1026541
18:00−2ююв61092100 0.0 1025612
21:00−4ю51192100 0.0 1025509
26 января, вт
вт2600:00−4ю41194100 0.1 1025644
03:00−2ю41095100 0.1 1024464
06:00−1ю51094100 0.1 1023510
09:00−4ю5119398 0.1 1024420
12:00−3ю6119198 0.0 1024508
15:00−4ююв6119399 0.0 1022502
18:00−3ю61393100 0.0 1023600
21:00−2ю51194100 0.1 1022609
27 января, ср
ср2700:00−2ююв61291100 0.0 1022440
03:00−2ю61193100 0.1 1021493
06:00−3ю61293100 0.0 1021443
09:00−4ююв71394100 0.1 1020380
12:00−1ю71294100 0.0 1020498
15:00−1ю61192100 0.0 1019491
18:00−5ююв61391100 0.0 1020368
21:00−5ююв71489100 0.0 1019355
28 января, чт
чт2800:00−4ююв71486100 0.0 1019384
03:00−5ююв71489100 0.0 1018384
06:00−6ююв71391100 0.0 1017393
09:00−7ююв61391100 0.0 1016403
12:00−6ююв61189100 0.0 1016432
15:00−6ююв61290100 0.0 1015414
18:00−7ююв61292100 0.0 1015371
21:00−9ююв5119499 0.0 1014318